This is the latest recevied weather packets stored in our database for station/object WA1OUI. If no packets are shown the sender has not sent any weather packets the latest 10 day(s).
| Time | Temp. | Humidity | Pressure | Rain* | Wind** | Luminosity | Snow |
|---|---|---|---|---|---|---|---|
| 1777581756 | 12.78° C | 91% | 1004 hPa | 0 mm | - | 80 W/m² | - |
| 1777581455 | 12.78° C | 90% | 1004 hPa | 0 mm | - | 63 W/m² | - |
| 1777581150 | 12.78° C | 89% | 1004.1 hPa | 0 mm | - | 65 W/m² | - |
| 1777580845 | 12.78° C | 89% | 1004.2 hPa | 0 mm | - | 52 W/m² | - |
| 1777580540 | 12.78° C | 88% | 1004.1 hPa | 0 mm | - | 61 W/m² | - |
| 1777580236 | 12.78° C | 88% | 1004.2 hPa | 0 mm | - | 76 W/m² | - |
| 1777579934 | 12.78° C | 86% | 1004.1 hPa | 0 mm | - | 63 W/m² | - |
| 1777579628 | 12.78° C | 83% | 1004.1 hPa | 0 mm | - | 95 W/m² | - |
| 1777579327 | 12.78° C | 90% | 1004.4 hPa | 0 mm | - | 99 W/m² | - |
| 1777579023 | 12.78° C | 89% | 1004.1 hPa | 0 mm | - | 62 W/m² | - |
| 1777578718 | 12.78° C | 89% | 1004.1 hPa | 0 mm | - | 67 W/m² | - |
| 1777578418 | 12.78° C | 90% | 1004.3 hPa | 0 mm | - | 66 W/m² | - |
| 1777578113 | 12.78° C | 89% | 1004.3 hPa | 0 mm | - | 77 W/m² | - |
| 1777577810 | 12.78° C | 89% | 1004 hPa | 0 mm | - | 109 W/m² | - |
| 1777577505 | 12.78° C | 89% | 1004.1 hPa | 0 mm | - | 97 W/m² | - |
| 1777577202 | 12.78° C | 91% | 1004.2 hPa | 0 mm | - | 80 W/m² | - |
| 1777576898 | 12.78° C | 89% | 1004.2 hPa | 0 mm | - | 64 W/m² | - |
| 1777576598 | 12.78° C | 88% | 1004.3 hPa | 0 mm | - | 92 W/m² | - |
| 1777576294 | 12.78° C | 88% | 1004.3 hPa | 0 mm | - | 114 W/m² | - |
| 1777575991 | 12.78° C | 88% | 1004.5 hPa | 0 mm | - | 113 W/m² | - |
| 1777575687 | 12.78° C | 86% | 1004.3 hPa | 0 mm | - | 77 W/m² | - |
| 1777575382 | 12.78° C | 85% | 1004.1 hPa | 0 mm | - | 84 W/m² | - |
| 1777575079 | 12.78° C | 87% | 1004.5 hPa | 0 mm | - | 79 W/m² | - |
| 1777574775 | 12.78° C | 88% | 1004.2 hPa | 0 mm | - | 121 W/m² | - |
| 1777574473 | 12.78° C | 89% | 1004.2 hPa | 0 mm | - | 163 W/m² | - |
* Rain latest hour (hover to see other rain measurements)
** Current wind speed in m/s (hover to see current wind gust speed)